Ainsworth, NE

6:23 PM CDT on July 25, 2016 (GMT -0500)
Ainsworth Municipal

Weather History for KANW - May, 2014

Change the Weather History Date:

Monday, May 19, 2014

  Actual Average Record
Temperature  
Mean Temperature 67 °F -  
Max Temperature 76 °F 66 °F 84 °F (2006)
Min Temperature 58 °F 44 °F 33 °F (1997)
Cooling Degree Days 2    
Growing Degree Days 17 (Base 50)    
Moisture  
Dew Point 55 °F    
Average Humidity 68    
Maximum Humidity 95    
Minimum Humidity 39    
Precipitation  
Precipitation 0.02 in - - ()
Sea Level Pressure  
Sea Level Pressure 29.71 in    
Wind  
Wind Speed 12 mph (North)    
Max Wind Speed 22 mph    
Max Gust Speed 26 mph    
Visibility 10 miles    
Events Rain , Thunderstorm    
Averages and records for this station are not official NWS values.
T = Trace of Precipitation, MM = Missing Value Source: NWS Daily Summary

Daily Weather History Graph

Daily Weather History Graph

Search for Another Location

Airport or City:

Trip Planner

Search our weather history database for the weather conditions in past years. The results will help you decide how hot, cold, wet, or windy it might be!

Date:

Astronomy

May. 19, 2014 Rise Set
Actual Time 6:14 AM CDT 8:59 PM CDT
Civil Twilight 5:41 AM CDT 9:32 PM CDT
Nautical Twilight 5:00 AM CDT 10:13 PM CDT
Astronomical Twilight 4:12 AM CDT 11:01 PM CDT
Moon 12:46 AM CDT (5/19) 11:15 AM CDT (5/19)
Length of Visible Light 15h 51m
Length of Day
14h 45m
Waning Gibbous, 71% of the Moon is Illuminated
May 19
Waning Gibbous
May 21
Last Quarter
May 28
New
Jun 5
First Quarter
Jun 12
Full

Hourly Weather History & Observations

Time (CDT) Temp. Dew Point Humidity Pressure Visibility Wind Dir Wind Speed Gust Speed Precip Events Conditions
12:15 AM 66.0 °F 55.0 °F 68% 29.75 in 10.0 mi South 18.4 mph - N/A   Clear
12:35 AM 65.5 °F 55.0 °F 69% 29.75 in 10.0 mi South 15.0 mph 21.9 mph N/A   Clear
12:55 AM 64.4 °F 55.4 °F 73% 29.74 in 10.0 mi SSE 6.9 mph - N/A Thunderstorm Clear
1:15 AM 64.0 °F 55.0 °F 73% 29.73 in 10.0 mi SSE 10.4 mph - N/A Thunderstorm Clear
1:35 AM 64.0 °F 54.7 °F 72% 29.71 in 10.0 mi SSE 15.0 mph - N/A   Clear
1:55 AM 63.9 °F 54.7 °F 72% 29.70 in 10.0 mi SSE 17.3 mph - N/A   Scattered Clouds
2:15 AM 63.7 °F 54.7 °F 72% 29.69 in 10.0 mi SSE 20.7 mph 25.3 mph N/A Thunderstorm Thunderstorm
2:35 AM 63.5 °F 54.9 °F 73% 29.68 in 10.0 mi SSE 18.4 mph - N/A   Scattered Clouds
2:55 AM 62.8 °F 54.7 °F 75% 29.68 in 10.0 mi SE 13.8 mph - N/A Thunderstorm Scattered Clouds
3:15 AM 62.2 °F 54.7 °F 76% 29.68 in 10.0 mi SSE 8.1 mph - N/A Thunderstorm Thunderstorm
3:35 AM 62.1 °F 54.9 °F 77% 29.72 in 10.0 mi WNW 8.1 mph - N/A Thunderstorm Thunderstorm
3:55 AM 61.7 °F 55.9 °F 81% 29.75 in 7.0 mi NNW 10.4 mph - 0.02 in Rain , Thunderstorm Heavy Thunderstorms and Rain
4:35 AM 59.9 °F 57.9 °F 93% 29.71 in 10.0 mi East 9.2 mph - N/A Thunderstorm Overcast
4:55 AM 59.5 °F 57.4 °F 93% 29.69 in 10.0 mi East 10.4 mph - N/A   Mostly Cloudy
5:15 AM 59.0 °F 56.7 °F 92% 29.68 in 10.0 mi ESE 9.2 mph - N/A Thunderstorm Scattered Clouds
5:35 AM 58.5 °F 56.7 °F 94% 29.65 in 10.0 mi ESE 11.5 mph - N/A   Scattered Clouds
5:55 AM 58.1 °F 56.7 °F 95% 29.64 in 10.0 mi ESE 13.8 mph - N/A   Clear
6:15 AM 58.1 °F 56.7 °F 95% 29.65 in 10.0 mi SE 9.2 mph - N/A Thunderstorm Scattered Clouds
6:35 AM 58.6 °F 57.2 °F 95% 29.65 in 7.0 mi SE 11.5 mph - N/A   Mostly Cloudy
6:55 AM 58.3 °F 56.8 °F 95% 29.64 in 7.0 mi SE 10.4 mph - N/A   Overcast
7:15 AM 58.6 °F 57.2 °F 95% 29.64 in 7.0 mi SE 9.2 mph - N/A   Mostly Cloudy
7:35 AM 59.4 °F 57.9 °F 95% 29.65 in 7.0 mi SE 6.9 mph - N/A   Scattered Clouds
8:35 AM 63.0 °F 59.0 °F 87% 29.65 in 10.0 mi South 12.7 mph - N/A   Clear
8:55 AM 64.4 °F 59.2 °F 83% 29.65 in 10.0 mi South 12.7 mph - N/A   Clear
9:35 AM 66.4 °F 59.0 °F 77% 29.64 in 10.0 mi SSW 10.4 mph - N/A   Mostly Cloudy
9:55 AM 67.3 °F 59.0 °F 75% 29.66 in 10.0 mi SSW 11.5 mph - N/A   Scattered Clouds
10:15 AM 67.3 °F 59.0 °F 75% 29.65 in 10.0 mi SW 9.2 mph - N/A   Scattered Clouds
10:35 AM 67.8 °F 59.0 °F 73% 29.66 in 10.0 mi WSW 12.7 mph - N/A   Clear
10:55 AM 68.0 °F 58.8 °F 72% 29.66 in 10.0 mi WSW 9.2 mph - N/A   Clear
11:15 AM 68.7 °F 59.0 °F 71% 29.66 in 10.0 mi West 10.4 mph - N/A   Mostly Cloudy
11:35 AM 69.6 °F 59.5 °F 70% 29.66 in 10.0 mi WNW 9.2 mph - N/A   Mostly Cloudy
11:55 AM 70.3 °F 59.4 °F 68% 29.66 in 10.0 mi NW 5.8 mph 16.1 mph N/A   Mostly Cloudy
12:15 PM 70.3 °F 58.6 °F 66% 29.66 in 10.0 mi NW 3.5 mph - N/A   Scattered Clouds
12:35 PM 72.0 °F 60.1 °F 66% 29.66 in 10.0 mi NW 10.4 mph - N/A   Scattered Clouds
12:55 PM 72.9 °F 59.5 °F 63% 29.66 in 10.0 mi North 6.9 mph - N/A   Clear
1:15 PM 73.6 °F 59.2 °F 61% 29.67 in 10.0 mi NW 9.2 mph 16.1 mph N/A   Clear
1:35 PM 74.1 °F 59.7 °F 61% 29.67 in 10.0 mi North 12.7 mph 17.3 mph N/A   Scattered Clouds
1:55 PM 74.3 °F 60.3 °F 61% 29.66 in 10.0 mi North 11.5 mph - N/A   Scattered Clouds
2:15 PM 75.2 °F 60.1 °F 59% 29.67 in 10.0 mi North 9.2 mph 18.4 mph N/A   Scattered Clouds
2:35 PM 76.8 °F 59.9 °F 56% 29.67 in 10.0 mi North 15.0 mph 19.6 mph N/A   Scattered Clouds
2:55 PM 76.6 °F 58.6 °F 54% 29.68 in 10.0 mi NNW 11.5 mph 19.6 mph N/A   Scattered Clouds
3:15 PM 75.6 °F 58.8 °F 56% 29.70 in 10.0 mi NNW 21.9 mph - N/A   Mostly Cloudy
3:35 PM 73.9 °F 58.3 °F 58% 29.70 in 10.0 mi North 21.9 mph 26.5 mph N/A   Scattered Clouds
3:55 PM 72.3 °F 55.9 °F 56% 29.72 in 10.0 mi NNW 21.9 mph 26.5 mph N/A   Mostly Cloudy
4:15 PM 74.3 °F 55.0 °F 51% 29.72 in 10.0 mi North 17.3 mph 26.5 mph N/A   Mostly Cloudy
4:35 PM 74.8 °F 53.8 °F 48% 29.73 in 10.0 mi North 13.8 mph 25.3 mph N/A   Clear
4:55 PM 75.6 °F 53.2 °F 46% 29.73 in 10.0 mi North 12.7 mph 23.0 mph N/A   Clear
5:15 PM 75.6 °F 51.6 °F 43% 29.73 in 10.0 mi NNE 13.8 mph 18.4 mph N/A   Clear
5:55 PM 75.6 °F 49.1 °F 39% 29.75 in 10.0 mi North 13.8 mph 21.9 mph N/A   Clear
6:15 PM 75.7 °F 51.3 °F 42% 29.76 in 10.0 mi NNE 12.7 mph - N/A   Clear
6:35 PM 74.8 °F 50.4 °F 42% 29.75 in 10.0 mi North 13.8 mph 19.6 mph N/A   Clear
6:55 PM 74.5 °F 48.0 °F 39% 29.75 in 10.0 mi NNE 12.7 mph - N/A   Clear
7:15 PM 73.6 °F 50.0 °F 43% 29.76 in 10.0 mi North 9.2 mph 17.3 mph N/A   Clear
7:35 PM 72.7 °F 50.5 °F 46% 29.76 in 10.0 mi NNE 9.2 mph - N/A   Clear
7:55 PM 71.8 °F 51.1 °F 48% 29.76 in 10.0 mi North 8.1 mph - N/A   Clear
8:15 PM 70.0 °F 51.1 °F 51% 29.76 in 10.0 mi NE 3.5 mph - N/A   Clear
8:35 PM 67.3 °F 52.0 °F 58% 29.77 in 10.0 mi NNE 6.9 mph - N/A   Clear
8:55 PM 65.5 °F 51.4 °F 60% 29.78 in 10.0 mi North 5.8 mph - N/A   Clear
9:15 PM 61.2 °F 50.9 °F 69% 29.79 in 10.0 mi North 8.1 mph - N/A   Clear
9:35 PM 62.6 °F 50.5 °F 65% 29.81 in 10.0 mi North 6.9 mph - N/A   Clear
9:55 PM 58.8 °F 50.4 °F 73% 29.80 in 10.0 mi North 10.4 mph - N/A   Clear
10:15 PM 59.5 °F 51.3 °F 74% 29.81 in 10.0 mi North 8.1 mph - N/A   Clear
10:35 PM 59.0 °F 50.5 °F 73% 29.83 in 10.0 mi NNW 8.1 mph - N/A   Clear
10:55 PM 62.4 °F 52.3 °F 70% 29.85 in 10.0 mi WNW 5.8 mph - N/A   Clear
11:15 PM 62.8 °F 52.3 °F 69% 29.87 in 10.0 mi WNW 8.1 mph - N/A   Scattered Clouds
11:35 PM 61.7 °F 52.3 °F 71% 29.87 in 10.0 mi WNW 5.8 mph - N/A   Clear